Change the Weather History Date:

Thursday, November 22, 2012

  Actual Average (KSLG) Record (KSLG)
Temperature  
Mean Temperature 63 °F -  
Max Temperature 69 °F 54 °F 71 °F (1999)
Min Temperature 57 °F 35 °F 26 °F (2007)
Degree Days  
Heating Degree Days 2    
Growing Degree Days 13 (Base 50)    
Moisture  
Dew Point 44 °F    
Average Humidity 51    
Maximum Humidity 72    
Minimum Humidity 43    
Precipitation  
Precipitation 0.00 in - - ()
Sea Level Pressure  
Sea Level Pressure 30.05 in    
Wind  
Wind Speed 11 mph (South)    
Max Wind Speed 23 mph    
Max Gust Speed 29 mph    
Visibility 10 miles    
Events Rain , Thunderstorm    
Averages and records for this station are not official NWS values.
T = Trace of Precipitation, MM = Missing Value Source: NWS Daily Summary

Daily Weather History Graph

Daily Weather History Graph

Search for Another Location

Airport or City:

Trip Planner

Search our weather history database for the weather conditions in past years. The results will help you decide how hot, cold, wet, or windy it might be!

Date:

Astronomy

Nov. 22, 2012 Rise Set
Actual Time 7:04 AM CST 5:05 PM CST
Civil Twilight 6:36 AM CST 5:33 PM CST
Nautical Twilight 6:04 AM CST 6:05 PM CST
Astronomical Twilight 5:33 AM CST 6:36 PM CST
Moon 1:44 PM CST 1:33 AM CST
Length of Visible Light 10h 57m
Length of Day
10h 01m
Waxing Gibbous, 71% of the Moon is Illuminated
Nov 22
Waxing Gibbous
Nov 28
Full
Dec 6
Last Quarter
Dec 13
New
Dec 19
First Quarter

Hourly Weather History & Observations

Time (CST) Temp. Dew Point Humidity Pressure Visibility Wind Dir Wind Speed Gust Speed Precip Events Conditions
12:15 AM 57.2 °F 41.0 °F 55% 30.08 in 10.0 mi SSE 9.2 mph - N/A   Clear
12:35 AM 57.2 °F 41.0 °F 55% 30.08 in 10.0 mi SSE 9.2 mph - N/A   Clear
12:55 AM 57.2 °F 41.0 °F 55% 30.08 in 10.0 mi SSE 9.2 mph - N/A   Clear
1:15 AM 59.0 °F 41.0 °F 51% 30.07 in 10.0 mi SSE 9.2 mph - N/A   Clear
1:35 AM 57.2 °F 41.0 °F 55% 30.07 in 10.0 mi South 8.1 mph - N/A   Clear
1:55 AM 57.2 °F 41.0 °F 55% 30.06 in 10.0 mi South 6.9 mph - N/A   Clear
2:15 AM 59.0 °F 41.0 °F 51% 30.06 in 10.0 mi South 8.1 mph - N/A   Clear
2:35 AM 59.0 °F 41.0 °F 51% 30.05 in 10.0 mi South 8.1 mph - N/A   Clear
2:55 AM 59.0 °F 41.0 °F 51% 30.05 in 10.0 mi South 9.2 mph - N/A   Clear
3:15 AM 59.0 °F 41.0 °F 51% 30.05 in 10.0 mi South 6.9 mph - N/A   Clear
3:35 AM 59.0 °F 41.0 °F 51% 30.05 in 10.0 mi South 8.1 mph - N/A   Clear
3:55 AM 59.0 °F 41.0 °F 51% 30.05 in 10.0 mi South 5.8 mph - N/A   Clear
4:15 AM 59.0 °F 41.0 °F 51% 30.05 in 10.0 mi South 8.1 mph - N/A   Clear
4:35 AM 60.8 °F 41.0 °F 48% 30.04 in 10.0 mi South 10.4 mph - N/A   Clear
4:55 AM 60.8 °F 41.0 °F 48% 30.04 in 10.0 mi South 11.5 mph 17.3 mph N/A   Clear
5:15 AM 59.0 °F 41.0 °F 51% 30.04 in 10.0 mi South 9.2 mph - N/A   Clear
5:35 AM 59.0 °F 41.0 °F 51% 30.04 in 10.0 mi South 11.5 mph - N/A   Clear
5:55 AM 59.0 °F 41.0 °F 51% 30.04 in 10.0 mi South 10.4 mph - N/A   Clear
6:15 AM 59.0 °F 41.0 °F 51% 30.05 in 10.0 mi South 10.4 mph - N/A   Clear
6:35 AM 59.0 °F 41.0 °F 51% 30.05 in 10.0 mi South 10.4 mph - N/A   Clear
6:55 AM 57.2 °F 41.0 °F 55% 30.05 in 10.0 mi South 10.4 mph - N/A   Clear
7:15 AM 57.2 °F 41.0 °F 55% 30.06 in 10.0 mi South 10.4 mph - N/A   Clear
7:35 AM 59.0 °F 41.0 °F 51% 30.06 in 10.0 mi South 12.7 mph - N/A   Clear
7:55 AM 59.0 °F 41.0 °F 51% 30.06 in 10.0 mi South 12.7 mph - N/A   Clear
8:15 AM 59.0 °F 41.0 °F 51% 30.05 in 10.0 mi South 12.7 mph 18.4 mph N/A   Clear
8:35 AM 60.8 °F 42.8 °F 52% 30.05 in 10.0 mi South 15.0 mph 21.9 mph N/A   Clear
8:55 AM 60.8 °F 42.8 °F 52% 30.05 in 10.0 mi South 16.1 mph 20.7 mph N/A   Clear
9:15 AM 60.8 °F 42.8 °F 52% 30.05 in 10.0 mi South 15.0 mph - N/A   Clear
9:55 AM 62.6 °F 44.6 °F 52% 30.05 in 10.0 mi South 11.5 mph - N/A   Clear
10:15 AM 64.4 °F 44.6 °F 49% 30.05 in 10.0 mi South 12.7 mph 16.1 mph N/A   Clear
10:35 AM 64.4 °F 44.6 °F 49% 30.05 in 10.0 mi South 13.8 mph 18.4 mph N/A   Clear
10:55 AM 64.4 °F 44.6 °F 49% 30.03 in 10.0 mi South 12.7 mph 18.4 mph N/A   Clear
11:15 AM 66.2 °F 46.4 °F 49% 30.03 in 10.0 mi South 15.0 mph - N/A   Clear
11:35 AM 68.0 °F 46.4 °F 46% 30.02 in 10.0 mi South 15.0 mph - N/A   Clear
11:55 AM 69.8 °F 46.4 °F 43% 30.01 in 10.0 mi SSW 23.0 mph 28.8 mph N/A   Clear
12:15 PM 69.8 °F 46.4 °F 43% 30.00 in 10.0 mi SSW 19.6 mph 24.2 mph N/A   Clear
12:35 PM 69.8 °F 46.4 °F 43% 29.99 in 10.0 mi South 17.3 mph 27.6 mph N/A   Clear
12:55 PM 69.8 °F 46.4 °F 43% 29.98 in 10.0 mi SSW 19.6 mph 27.6 mph N/A   Clear
1:15 PM 69.8 °F 46.4 °F 43% 29.98 in 10.0 mi South 23.0 mph 26.5 mph N/A   Clear
1:35 PM 68.0 °F 46.4 °F 46% 29.98 in 10.0 mi South 17.3 mph 26.5 mph N/A   Clear
1:55 PM 68.0 °F 46.4 °F 46% 29.97 in 10.0 mi South 15.0 mph 20.7 mph N/A   Clear
2:15 PM 69.8 °F 46.4 °F 43% 29.96 in 10.0 mi South 15.0 mph 21.9 mph N/A   Clear
2:35 PM 69.8 °F 46.4 °F 43% 29.95 in 10.0 mi South 16.1 mph 21.9 mph N/A   Clear
2:55 PM 69.8 °F 46.4 °F 43% 29.95 in 10.0 mi South 16.1 mph 21.9 mph N/A   Clear
3:15 PM 69.8 °F 46.4 °F 43% 29.95 in 10.0 mi South 16.1 mph - N/A   Clear
3:35 PM 69.8 °F 46.4 °F 43% 29.94 in 10.0 mi South 15.0 mph - N/A   Clear
3:55 PM 69.8 °F 46.4 °F 43% 29.95 in 10.0 mi SSE 12.7 mph 19.6 mph N/A   Clear
4:15 PM 69.8 °F 46.4 °F 43% 29.96 in 10.0 mi South 8.1 mph - N/A   Scattered Clouds
4:35 PM 68.0 °F 48.2 °F 49% 29.96 in 10.0 mi SSE 4.6 mph - N/A   Clear
4:55 PM 68.0 °F 48.2 °F 49% 29.97 in 10.0 mi South 9.2 mph - N/A   Clear
5:15 PM 68.0 °F 48.2 °F 49% 29.98 in 10.0 mi South 5.8 mph - N/A   Clear
5:35 PM 64.4 °F 48.2 °F 56% 30.00 in 10.0 mi Calm Calm - N/A   Clear
5:55 PM 64.4 °F 46.4 °F 52% 30.02 in 10.0 mi Calm Calm - N/A   Scattered Clouds
6:15 PM 66.2 °F 48.2 °F 52% 30.03 in 10.0 mi SSW 5.8 mph - N/A   Scattered Clouds
6:35 PM 66.2 °F 48.2 °F 52% 30.04 in 10.0 mi SSW 6.9 mph - N/A   Scattered Clouds
6:55 PM 64.4 °F 48.2 °F 56% 30.05 in 10.0 mi SSW 5.8 mph - N/A   Scattered Clouds
7:55 PM 66.2 °F 48.2 °F 52% 30.05 in 10.0 mi SSW 8.1 mph - N/A Thunderstorm Mostly Cloudy
8:15 PM 66.2 °F 48.2 °F 52% 30.05 in 10.0 mi SSW 10.4 mph - N/A   Clear
8:35 PM 64.4 °F 46.4 °F 52% 30.06 in 10.0 mi SW 8.1 mph - N/A Thunderstorm Scattered Clouds
8:55 PM 66.2 °F 46.4 °F 49% 30.07 in 10.0 mi SW 8.1 mph - N/A   Clear
9:15 PM 66.2 °F 46.4 °F 49% 30.11 in 10.0 mi WNW 10.4 mph - N/A   Mostly Cloudy
9:35 PM 66.2 °F 50.0 °F 56% 30.13 in 10.0 mi WNW 10.4 mph 19.6 mph N/A   Overcast
9:55 PM 62.6 °F 53.6 °F 72% 30.15 in 7.0 mi NW 15.0 mph 19.6 mph N/A Rain Rain
10:15 PM 60.8 °F 50.0 °F 68% 30.15 in 10.0 mi North 15.0 mph 20.7 mph N/A   Overcast
10:35 PM 60.8 °F 46.4 °F 59% 30.17 in 10.0 mi North 9.2 mph 21.9 mph N/A   Overcast
10:55 PM 60.8 °F 44.6 °F 55% 30.19 in 10.0 mi North 15.0 mph 23.0 mph N/A   Overcast
11:15 PM 60.8 °F 42.8 °F 52% 30.21 in 10.0 mi North 16.1 mph 26.5 mph N/A   Overcast
11:35 PM 59.0 °F 41.0 °F 51% 30.22 in 10.0 mi North 17.3 mph 23.0 mph N/A   Overcast
11:55 PM 59.0 °F 41.0 °F 51% 30.23 in 10.0 mi North 15.0 mph 20.7 mph N/A   Overcast